Time,TemperatureF,DewpointF,PressureIn,WindDirection,WindDirectionDegrees,WindSpeedMPH,WindSpeedGustMPH,Humidity,HourlyPrecipIn,Conditions,Clouds,dailyrainin,SoftwareType,DateUTC
2013-02-20 00:00:00,63.0,58.4,30.02,ESE,123,6.5,11.5,85,0.00,,FEW,0.00,WeatherDisplay:10.37,2013-02-20 06:00:00,
2013-02-20 00:05:00,63.1,58.5,30.02,ESE,106,5.5,11.5,85,0.00,,FEW,0.00,WeatherDisplay:10.37,2013-02-20 06:05:00,
2013-02-20 00:10:00,63.1,58.5,30.02,NE,47,14.9,14.9,85,0.00,,FEW,0.00,WeatherDisplay:10.37,2013-02-20 06:10:00,
2013-02-20 00:15:00,63.1,58.5,30.02,ENE,69,13.5,17.3,85,0.00,,FEW,0.00,WeatherDisplay:10.37,2013-02-20 06:15:00,
2013-02-20 00:20:00,63.2,58.3,30.02,ESE,114,5.2,11.5,84,0.00,,FEW,0.00,WeatherDisplay:10.37,2013-02-20 06:20:00,
2013-02-20 00:25:00,63.3,58.4,30.02,ESE,118,5.1,12.7,84,0.00,,FEW,0.00,WeatherDisplay:10.37,2013-02-20 06:25:00,
2013-02-20 00:30:00,63.3,58.4,30.03,ENE,69,9.9,20.7,84,0.00,,FEW,0.00,WeatherDisplay:10.37,2013-02-20 06:30:00,
2013-02-20 00:35:00,63.3,58.4,30.03,ESE,103,8.1,15.0,84,0.00,,FEW,0.00,WeatherDisplay:10.37,2013-02-20 06:35:00,
2013-02-20 00:40:00,63.4,58.5,30.03,East,95,8.8,22.6,84,0.00,,FEW,0.00,WeatherDisplay:10.37,2013-02-20 06:40:00,
2013-02-20 00:45:00,63.5,58.6,30.03,ESE,123,7.8,10.4,84,0.00,,FEW,0.00,WeatherDisplay:10.37,2013-02-20 06:45:00,
2013-02-20 00:50:00,63.5,58.6,30.03,East,99,5.2,9.2,84,0.00,,FEW,0.00,WeatherDisplay:10.37,2013-02-20 06:50:00,
2013-02-20 00:55:00,63.5,58.6,30.04,ESE,116,5.8,8.1,84,0.00,,FEW,0.00,WeatherDisplay:10.37,2013-02-20 06:55:00,
2013-02-20 01:00:00,63.5,58.6,30.03,East,99,5.6,6.9,84,0.00,,FEW,0.00,WeatherDisplay:10.37,2013-02-20 07:00:00,
2013-02-20 01:05:00,63.5,58.9,30.04,ENE,66,8.0,8.1,85,0.00,,FEW,0.00,WeatherDisplay:10.37,2013-02-20 07:05:00,
2013-02-20 01:10:00,63.4,58.8,30.04,ENE,57,8.2,8.2,85,0.00,,FEW,0.00,WeatherDisplay:10.37,2013-02-20 07:10:00,
2013-02-20 01:15:00,63.4,58.8,30.04,East,90,3.5,5.8,85,0.00,,FEW,0.00,WeatherDisplay:10.37,2013-02-20 07:15:00,
2013-02-20 01:20:00,63.3,58.7,30.04,East,84,3.1,5.8,85,0.00,,FEW,0.00,WeatherDisplay:10.37,2013-02-20 07:20:00,
2013-02-20 01:25:00,63.2,58.9,30.04,ESE,106,4.7,8.1,86,0.00,,FEW,0.00,WeatherDisplay:10.37,2013-02-20 07:25:00,
2013-02-20 01:30:00,63.1,58.8,30.04,ESE,111,2.9,8.1,86,0.00,,FEW,0.00,WeatherDisplay:10.37,2013-02-20 07:30:00,
2013-02-20 01:35:00,63.1,58.8,30.04,East,86,3.8,5.8,86,0.00,,FEW,0.00,WeatherDisplay:10.37,2013-02-20 07:35:00,
2013-02-20 01:40:00,63.1,58.8,30.04,ESE,114,2.2,3.5,86,0.00,,FEW,0.00,WeatherDisplay:10.37,2013-02-20 07:40:00,
2013-02-20 01:45:00,63.2,58.9,30.03,ESE,118,6.5,8.1,86,0.00,,FEW,0.00,WeatherDisplay:10.37,2013-02-20 07:45:00,
2013-02-20 01:50:00,63.2,58.9,30.03,East,98,5.2,5.8,86,0.00,,FEW,0.00,WeatherDisplay:10.37,2013-02-20 07:50:00,
2013-02-20 01:55:00,63.2,59.3,30.03,ESE,110,4.7,5.8,87,0.00,,FEW,0.00,WeatherDisplay:10.37,2013-02-20 07:55:00,
2013-02-20 02:00:00,63.1,59.2,30.03,ESE,102,3.5,5.8,87,0.00,,FEW,0.00,WeatherDisplay:10.37,2013-02-20 08:00:00,
2013-02-20 02:05:00,63.1,59.2,30.03,ESE,102,3.1,5.8,87,0.00,,FEW,0.00,WeatherDisplay:10.37,2013-02-20 08:05:00,
2013-02-20 02:10:00,63.2,59.3,30.03,ESE,121,2.2,9.2,87,0.00,,FEW,0.00,WeatherDisplay:10.37,2013-02-20 08:10:00,
2013-02-20 02:15:00,63.2,59.3,30.02,East,95,3.0,5.8,87,0.00,,FEW,0.00,WeatherDisplay:10.37,2013-02-20 08:15:00,
2013-02-20 02:20:00,63.3,59.4,30.03,ESE,107,0.0,3.5,87,0.00,,FEW,0.00,WeatherDisplay:10.37,2013-02-20 08:20:00,
2013-02-20 02:25:00,63.5,59.6,30.03,SE,126,1.1,3.5,87,0.00,,FEW,0.00,WeatherDisplay:10.37,2013-02-20 08:25:00,
2013-02-20 02:30:00,63.7,59.8,30.04,ESE,114,1.1,3.5,87,0.00,,FEW,0.00,WeatherDisplay:10.37,2013-02-20 08:30:00,
2013-02-20 02:35:00,63.9,59.6,30.03,ESE,109,2.0,5.8,86,0.00,,FEW,0.00,WeatherDisplay:10.37,2013-02-20 08:35:00,
2013-02-20 02:40:00,64.0,59.7,30.03,SE,133,2.5,3.5,86,0.00,,FEW,0.00,WeatherDisplay:10.37,2013-02-20 08:40:00,
2013-02-20 02:45:00,64.1,59.8,30.03,East,100,3.9,5.8,86,0.00,,FEW,0.00,WeatherDisplay:10.37,2013-02-20 08:45:00,
2013-02-20 02:50:00,64.1,59.8,30.04,SE,135,2.8,3.5,86,0.00,,FEW,0.00,WeatherDisplay:10.37,2013-02-20 08:50:00,
2013-02-20 02:55:00,64.2,59.9,30.04,ESE,118,0.9,2.3,86,0.00,,FEW,0.00,WeatherDisplay:10.37,2013-02-20 08:55:00,
2013-02-20 03:00:00,64.3,60.0,30.05,East,101,1.5,4.6,86,0.00,,FEW,0.00,WeatherDisplay:10.37,2013-02-20 09:00:00,
2013-02-20 03:05:00,64.4,60.1,30.04,SE,131,0.4,3.5,86,0.00,,FEW,0.00,WeatherDisplay:10.37,2013-02-20 09:05:00,
2013-02-20 03:10:00,64.4,60.1,30.04,ESE,116,0.8,1.1,86,0.00,,FEW,0.00,WeatherDisplay:10.37,2013-02-20 09:10:00,
2013-02-20 03:15:00,64.4,60.1,30.04,ESE,107,2.2,3.5,86,0.00,,FEW,0.00,WeatherDisplay:10.37,2013-02-20 09:15:00,
2013-02-20 03:20:00,64.3,60.0,30.03,East,79,0.1,1.1,86,0.00,,FEW,0.00,WeatherDisplay:10.37,2013-02-20 09:20:00,
2013-02-20 03:25:00,64.3,60.0,30.04,East,90,0.0,1.1,86,0.00,,FEW,0.00,WeatherDisplay:10.37,2013-02-20 09:25:00,
2013-02-20 03:30:00,64.3,60.0,30.03,East,88,0.3,2.3,86,0.00,,FEW,0.00,WeatherDisplay:10.37,2013-02-20 09:30:00,
2013-02-20 03:35:00,64.3,60.0,30.03,ESE,106,0.5,2.3,86,0.00,,FEW,0.00,WeatherDisplay:10.37,2013-02-20 09:35:00,
2013-02-20 03:40:00,64.4,60.1,30.03,ESE,104,2.2,3.5,86,0.00,,FEW,0.00,WeatherDisplay:10.37,2013-02-20 09:40:00,
2013-02-20 03:45:00,64.4,60.1,30.03,NNE,31,1.6,2.3,86,0.00,,FEW,0.00,WeatherDisplay:10.37,2013-02-20 09:45:00,
2013-02-20 03:50:00,64.5,60.2,30.03,East,97,0.4,5.8,86,0.00,,FEW,0.00,WeatherDisplay:10.37,2013-02-20 09:50:00,
2013-02-20 03:55:00,64.5,60.2,30.03,ENE,76,1.3,2.3,86,0.00,,FEW,0.00,WeatherDisplay:10.37,2013-02-20 09:55:00,
2013-02-20 04:00:00,64.5,60.2,30.03,ESE,109,0.3,1.1,86,0.00,,FEW,0.00,WeatherDisplay:10.37,2013-02-20 10:00:00,
2013-02-20 04:05:00,64.6,60.3,30.03,ESE,108,1.4,4.6,86,0.00,,FEW,0.00,WeatherDisplay:10.37,2013-02-20 10:05:00,
2013-02-20 04:10:00,64.6,60.6,30.03,ESE,104,1.8,2.3,87,0.00,,FEW,0.00,WeatherDisplay:10.37,2013-02-20 10:10:00,
2013-02-20 04:15:00,64.6,60.6,30.02,NE,54,4.6,5.8,87,0.00,,FEW,0.00,WeatherDisplay:10.37,2013-02-20 10:15:00,
2013-02-20 04:20:00,64.7,60.7,30.02,NE,40,5.1,8.1,87,0.00,,FEW,0.00,WeatherDisplay:10.37,2013-02-20 10:20:00,
2013-02-20 04:25:00,64.7,60.7,30.02,East,84,2.4,5.8,87,0.00,,FEW,0.00,WeatherDisplay:10.37,2013-02-20 10:25:00,
2013-02-20 04:30:00,64.8,60.8,30.02,NE,56,3.3,5.8,87,0.00,,FEW,0.00,WeatherDisplay:10.37,2013-02-20 10:30:00,
2013-02-20 04:35:00,64.8,60.8,30.02,East,90,1.5,5.8,87,0.00,,FEW,0.00,WeatherDisplay:10.37,2013-02-20 10:35:00,
2013-02-20 04:40:00,64.9,60.9,30.01,SE,127,2.3,8.1,87,0.00,,FEW,0.00,WeatherDisplay:10.37,2013-02-20 10:40:00,
2013-02-20 04:45:00,64.9,60.9,30.01,ESE,103,2.2,5.8,87,0.00,,FEW,0.00,WeatherDisplay:10.37,2013-02-20 10:45:00,
2013-02-20 04:50:00,64.9,60.9,30.01,SE,129,3.3,5.8,87,0.00,,FEW,0.00,WeatherDisplay:10.37,2013-02-20 10:50:00,
2013-02-20 04:55:00,64.8,61.2,30.01,ESE,118,1.7,5.8,88,0.00,,FEW,0.00,WeatherDisplay:10.37,2013-02-20 10:55:00,
2013-02-20 05:00:00,64.8,61.2,30.01,ESE,110,1.6,5.8,88,0.00,,FEW,0.00,WeatherDisplay:10.37,2013-02-20 11:00:00,
2013-02-20 05:05:00,64.7,61.1,30.01,ESE,120,3.6,8.1,88,0.00,,FEW,0.00,WeatherDisplay:10.37,2013-02-20 11:05:00,
2013-02-20 05:10:00,64.7,61.1,30.00,ESE,114,0.6,5.8,88,0.00,,FEW,0.00,WeatherDisplay:10.37,2013-02-20 11:10:00,
2013-02-20 05:15:00,64.7,61.4,30.01,East,96,1.6,3.5,89,0.00,,FEW,0.00,WeatherDisplay:10.37,2013-02-20 11:15:00,
2013-02-20 05:20:00,64.7,61.4,30.00,ESE,121,1.8,6.3,89,0.00,,FEW,0.00,WeatherDisplay:10.37,2013-02-20 11:20:00,
2013-02-20 05:25:00,64.7,61.4,30.00,ESE,105,1.4,5.8,89,0.00,,FEW,0.00,WeatherDisplay:10.37,2013-02-20 11:25:00,
2013-02-20 05:30:00,64.8,61.5,30.00,ESE,119,2.4,8.1,89,0.00,,FEW,0.00,WeatherDisplay:10.37,2013-02-20 11:30:00,
2013-02-20 05:35:00,64.8,61.5,30.00,East,98,1.9,3.5,89,0.00,,FEW,0.00,WeatherDisplay:10.37,2013-02-20 11:35:00,
2013-02-20 05:40:00,64.8,61.5,30.00,East,92,2.5,4.6,89,0.00,,FEW,0.00,WeatherDisplay:10.37,2013-02-20 11:40:00,
2013-02-20 05:45:00,64.8,61.8,30.00,ENE,67,2.7,5.8,90,0.00,,FEW,0.00,WeatherDisplay:10.37,2013-02-20 11:45:00,
2013-02-20 05:50:00,64.8,61.8,30.00,ENE,77,4.3,4.3,90,0.00,,FEW,0.00,WeatherDisplay:10.37,2013-02-20 11:50:00,
2013-02-20 05:55:00,64.8,61.8,29.99,East,92,4.4,8.1,90,0.00,,FEW,0.00,WeatherDisplay:10.37,2013-02-20 11:55:00,
2013-02-20 06:00:00,64.7,61.7,29.98,East,101,3.0,5.8,90,0.00,,FEW,0.00,WeatherDisplay:10.37,2013-02-20 12:00:00,
2013-02-20 06:05:00,64.8,62.1,29.98,ENE,66,6.9,8.1,91,0.00,,FEW,0.00,WeatherDisplay:10.37,2013-02-20 12:05:00,
2013-02-20 06:10:00,64.8,62.1,29.97,East,80,4.8,11.5,91,0.00,,FEW,0.00,WeatherDisplay:10.37,2013-02-20 12:10:00,
2013-02-20 06:15:00,64.8,62.1,29.97,East,98,3.2,5.8,91,0.00,,FEW,0.00,WeatherDisplay:10.37,2013-02-20 12:15:00,
2013-02-20 06:20:00,64.9,62.2,29.97,SE,137,3.6,11.6,91,0.00,,FEW,0.00,WeatherDisplay:10.37,2013-02-20 12:20:00,
2013-02-20 06:25:00,65.0,62.3,29.98,SE,135,4.5,10.4,91,0.00,,FEW,0.00,WeatherDisplay:10.37,2013-02-20 12:25:00,
2013-02-20 06:30:00,65.1,62.4,29.97,ESE,118,3.5,8.1,91,0.00,,FEW,0.00,WeatherDisplay:10.37,2013-02-20 12:30:00,
2013-02-20 06:35:00,65.2,62.8,29.97,ESE,108,5.4,8.1,92,0.00,,FEW,0.00,WeatherDisplay:10.37,2013-02-20 12:35:00,
2013-02-20 06:40:00,65.3,62.9,29.97,SE,141,5.1,9.2,92,0.00,,FEW,0.00,WeatherDisplay:10.37,2013-02-20 12:40:00,
2013-02-20 06:45:00,65.5,63.1,29.97,SE,126,2.0,6.3,92,0.00,,FEW,0.00,WeatherDisplay:10.37,2013-02-20 12:45:00,
2013-02-20 06:50:00,65.5,63.1,29.97,ESE,118,4.9,8.1,92,0.00,,FEW,0.00,WeatherDisplay:10.37,2013-02-20 12:50:00,
2013-02-20 06:55:00,65.7,63.3,29.96,SE,129,5.3,9.2,92,0.00,,FEW,0.00,WeatherDisplay:10.37,2013-02-20 12:55:00,
2013-02-20 07:00:00,65.8,63.4,29.96,ESE,121,7.9,11.5,92,0.00,,FEW,0.00,WeatherDisplay:10.37,2013-02-20 13:00:00,
2013-02-20 07:05:00,65.8,63.4,29.97,ESE,103,6.3,11.5,92,0.00,,FEW,0.00,WeatherDisplay:10.37,2013-02-20 13:05:00,
2013-02-20 07:10:00,65.8,63.4,29.97,ESE,114,5.2,11.5,92,0.00,,FEW,0.00,WeatherDisplay:10.37,2013-02-20 13:10:00,
2013-02-20 07:15:00,65.8,63.4,29.97,East,99,4.8,12.7,92,0.00,,FEW,0.00,WeatherDisplay:10.37,2013-02-20 13:15:00,
2013-02-20 07:20:00,65.8,63.4,29.98,ESE,114,9.0,11.5,92,0.00,,FEW,0.00,WeatherDisplay:10.37,2013-02-20 13:20:00,
2013-02-20 07:25:00,65.9,63.5,29.98,East,88,4.9,8.1,92,0.00,,FEW,0.00,WeatherDisplay:10.37,2013-02-20 13:25:00,
2013-02-20 07:30:00,66.0,63.6,29.99,ENE,73,10.8,13.2,92,0.00,,FEW,0.00,WeatherDisplay:10.37,2013-02-20 13:30:00,
2013-02-20 07:35:00,66.1,63.7,29.99,ESE,122,4.9,12.7,92,0.00,,FEW,0.00,WeatherDisplay:10.37,2013-02-20 13:35:00,
2013-02-20 07:40:00,66.1,63.7,29.99,ESE,108,3.5,15.0,92,0.00,,FEW,0.00,WeatherDisplay:10.37,2013-02-20 13:40:00,
2013-02-20 07:45:00,66.2,63.8,29.99,SE,126,8.4,10.4,92,0.00,,FEW,0.00,WeatherDisplay:10.37,2013-02-20 13:45:00,
2013-02-20 07:50:00,66.3,63.9,29.98,ESE,116,5.3,12.7,92,0.00,,FEW,0.00,WeatherDisplay:10.37,2013-02-20 13:50:00,
2013-02-20 07:55:00,66.3,63.9,29.98,ESE,109,7.5,17.3,92,0.00,,FEW,0.00,WeatherDisplay:10.37,2013-02-20 13:55:00,
2013-02-20 08:00:00,66.4,64.0,29.97,ESE,109,7.4,10.5,92,0.00,,FEW,0.00,WeatherDisplay:10.37,2013-02-20 14:00:00,
2013-02-20 08:05:00,66.3,63.9,29.97,SE,135,8.2,11.5,92,0.00,,FEW,0.00,WeatherDisplay:10.37,2013-02-20 14:05:00,
2013-02-20 08:10:00,66.4,64.0,29.96,SE,141,8.7,9.2,92,0.00,,FEW,0.00,WeatherDisplay:10.37,2013-02-20 14:10:00,
2013-02-20 08:15:00,66.5,64.1,29.97,SE,142,6.4,9.2,92,0.00,,FEW,0.00,WeatherDisplay:10.37,2013-02-20 14:15:00,
2013-02-20 08:20:00,66.7,64.3,29.97,SSE,147,7.7,10.4,92,0.00,,FEW,0.00,WeatherDisplay:10.37,2013-02-20 14:20:00,
2013-02-20 08:25:00,66.8,64.4,29.97,SE,133,9.0,10.5,92,0.00,,FEW,0.00,WeatherDisplay:10.37,2013-02-20 14:25:00,
2013-02-20 08:30:00,66.9,64.5,29.97,ESE,118,7.1,9.2,92,0.00,,FEW,0.00,WeatherDisplay:10.37,2013-02-20 14:30:00,
2013-02-20 08:35:00,67.0,64.6,29.97,East,85,6.1,9.4,92,0.00,,FEW,0.00,WeatherDisplay:10.37,2013-02-20 14:35:00,
2013-02-20 08:40:00,67.1,64.7,29.97,ESE,106,5.4,17.3,92,0.00,,FEW,0.00,WeatherDisplay:10.37,2013-02-20 14:40:00,
2013-02-20 08:45:00,67.1,64.7,29.98,SE,141,6.6,15.0,92,0.00,,FEW,0.00,WeatherDisplay:10.37,2013-02-20 14:45:00,
2013-02-20 08:50:00,67.2,64.8,29.98,SE,128,9.8,11.5,92,0.00,,FEW,0.00,WeatherDisplay:10.37,2013-02-20 14:50:00,
2013-02-20 08:55:00,67.2,64.8,29.97,SE,128,6.0,9.2,92,0.00,,FEW,0.00,WeatherDisplay:10.37,2013-02-20 14:55:00,
2013-02-20 09:00:00,67.2,64.8,29.98,ESE,118,8.5,10.4,92,0.00,,FEW,0.00,WeatherDisplay:10.37,2013-02-20 15:00:00,
2013-02-20 09:05:00,67.3,64.9,29.98,ESE,123,4.8,5.8,92,0.00,,FEW,0.00,WeatherDisplay:10.37,2013-02-20 15:05:00,
2013-02-20 09:10:00,67.3,64.9,29.97,SE,124,7.5,9.2,92,0.00,,FEW,0.00,WeatherDisplay:10.37,2013-02-20 15:10:00,
2013-02-20 09:15:00,67.3,64.9,29.97,ESE,123,5.7,9.2,92,0.00,,FEW,0.00,WeatherDisplay:10.37,2013-02-20 15:15:00,
2013-02-20 09:20:00,67.3,65.2,29.96,SSE,159,10.3,11.5,93,0.00,,FEW,0.00,WeatherDisplay:10.37,2013-02-20 15:20:00,
2013-02-20 09:25:00,67.4,65.3,29.96,SE,133,9.0,17.3,93,0.00,,FEW,0.00,WeatherDisplay:10.37,2013-02-20 15:25:00,
2013-02-20 09:30:00,67.5,65.4,29.96,ESE,103,9.4,9.4,93,0.00,,FEW,0.00,WeatherDisplay:10.37,2013-02-20 15:30:00,
2013-02-20 09:35:00,67.6,65.2,29.96,ESE,118,7.3,10.4,92,0.00,,FEW,0.00,WeatherDisplay:10.37,2013-02-20 15:35:00,
2013-02-20 09:40:00,67.7,65.6,29.97,SE,127,6.3,15.0,93,0.00,,FEW,0.00,WeatherDisplay:10.37,2013-02-20 15:40:00,
2013-02-20 09:45:00,68.0,65.6,29.96,SE,142,5.4,9.2,92,0.00,,FEW,0.00,WeatherDisplay:10.37,2013-02-20 15:45:00,
2013-02-20 09:50:00,68.1,65.7,29.96,SE,128,4.9,13.8,92,0.00,,FEW,0.00,WeatherDisplay:10.37,2013-02-20 15:50:00,
2013-02-20 09:55:00,68.2,65.8,29.95,ESE,123,10.5,13.8,92,0.00,,FEW,0.00,WeatherDisplay:10.37,2013-02-20 15:55:00,
2013-02-20 10:00:00,68.4,66.0,29.95,ESE,103,10.8,15.0,92,0.00,,FEW,0.00,WeatherDisplay:10.37,2013-02-20 16:00:00,
2013-02-20 10:05:00,68.7,66.3,29.94,East,96,7.2,18.4,92,0.00,,FEW,0.00,WeatherDisplay:10.37,2013-02-20 16:05:00,
2013-02-20 10:10:00,69.1,66.7,29.94,SE,130,12.6,18.4,92,0.00,,FEW,0.00,WeatherDisplay:10.37,2013-02-20 16:10:00,
2013-02-20 10:15:00,69.5,66.8,29.94,East,90,10.8,17.3,91,0.00,,FEW,0.00,WeatherDisplay:10.37,2013-02-20 16:15:00,
2013-02-20 10:20:00,69.7,67.0,29.94,SSE,168,7.6,15.8,91,0.00,,FEW,0.00,WeatherDisplay:10.37,2013-02-20 16:20:00,
2013-02-20 10:25:00,69.8,67.1,29.94,ESE,122,9.3,13.7,91,0.00,,FEW,0.00,WeatherDisplay:10.37,2013-02-20 16:25:00,
2013-02-20 10:30:00,69.8,67.1,29.93,ESE,118,11.0,16.1,91,0.00,,FEW,0.00,WeatherDisplay:10.37,2013-02-20 16:30:00,
2013-02-20 10:35:00,69.9,67.2,29.93,SE,131,10.6,18.4,91,0.00,,FEW,0.00,WeatherDisplay:10.37,2013-02-20 16:35:00,
2013-02-20 10:40:00,69.9,67.2,29.93,ESE,118,8.5,9.2,91,0.00,,FEW,0.00,WeatherDisplay:10.37,2013-02-20 16:40:00,
2013-02-20 10:45:00,70.0,67.3,29.93,SSE,149,11.3,13.8,91,0.00,,FEW,0.00,WeatherDisplay:10.37,2013-02-20 16:45:00,
2013-02-20 10:50:00,69.9,67.2,29.93,East,94,8.0,15.0,91,0.00,,FEW,0.00,WeatherDisplay:10.37,2013-02-20 16:50:00,
2013-02-20 10:55:00,69.8,67.1,29.93,SSE,162,5.8,10.4,91,0.00,,FEW,0.00,WeatherDisplay:10.37,2013-02-20 16:55:00,
2013-02-20 11:00:00,69.6,66.9,29.93,SSE,150,6.3,13.8,91,0.00,,FEW,0.00,WeatherDisplay:10.37,2013-02-20 17:00:00,
2013-02-20 11:05:00,69.5,67.1,29.93,SSE,163,10.0,12.7,92,0.00,,FEW,0.00,WeatherDisplay:10.37,2013-02-20 17:05:00,
2013-02-20 11:10:00,69.5,67.1,29.93,SE,133,6.4,11.5,92,0.00,,FEW,0.00,WeatherDisplay:10.37,2013-02-20 17:10:00,
2013-02-20 11:15:00,69.6,67.2,29.94,ESE,119,9.3,11.5,92,0.00,,FEW,0.00,WeatherDisplay:10.37,2013-02-20 17:15:00,
2013-02-20 11:20:00,69.5,67.1,29.93,SSE,163,5.4,8.1,92,0.00,,FEW,0.00,WeatherDisplay:10.37,2013-02-20 17:20:00,
2013-02-20 11:25:00,69.5,67.1,29.94,South,170,9.3,13.8,92,0.00,,FEW,0.00,WeatherDisplay:10.37,2013-02-20 17:25:00,
2013-02-20 11:30:00,69.6,67.2,29.93,NE,56,21.1,21.1,92,0.00,,FEW,0.00,WeatherDisplay:10.37,2013-02-20 17:30:00,
2013-02-20 11:35:00,69.7,67.3,29.92,SE,126,6.9,10.5,92,0.00,,FEW,0.00,WeatherDisplay:10.37,2013-02-20 17:35:00,
2013-02-20 11:40:00,69.9,67.5,29.92,ESE,106,11.6,17.3,92,0.00,,FEW,0.00,WeatherDisplay:10.37,2013-02-20 17:40:00,
2013-02-20 11:45:00,70.0,67.6,29.92,SE,140,8.4,11.5,92,0.00,,FEW,0.00,WeatherDisplay:10.37,2013-02-20 17:45:00,
2013-02-20 11:50:00,69.9,67.2,29.92,SE,133,9.8,16.1,91,0.00,,FEW,0.00,WeatherDisplay:10.37,2013-02-20 17:50:00,
2013-02-20 11:55:00,70.1,67.7,29.92,SSE,150,7.9,12.7,92,0.00,,FEW,0.00,WeatherDisplay:10.37,2013-02-20 17:55:00,
2013-02-20 12:00:00,70.1,67.3,29.93,South,173,7.2,12.7,91,0.00,,FEW,0.00,WeatherDisplay:10.37,2013-02-20 18:00:00,
2013-02-20 12:05:00,70.0,67.3,29.93,SE,136,7.8,13.8,91,0.00,,FEW,0.00,WeatherDisplay:10.37,2013-02-20 18:05:00,
2013-02-20 12:10:00,69.8,67.1,29.93,SE,129,2.8,6.9,91,0.00,,FEW,0.00,WeatherDisplay:10.37,2013-02-20 18:10:00,
2013-02-20 12:15:00,69.8,67.1,29.92,ESE,122,4.9,5.8,91,0.00,,FEW,0.00,WeatherDisplay:10.37,2013-02-20 18:15:00,
2013-02-20 12:20:00,69.8,67.1,29.92,ESE,111,9.2,10.4,91,0.00,,FEW,0.00,WeatherDisplay:10.37,2013-02-20 18:20:00,
2013-02-20 12:25:00,70.0,67.3,29.91,ESE,115,6.8,11.3,91,0.00,,FEW,0.00,WeatherDisplay:10.37,2013-02-20 18:25:00,
2013-02-20 12:30:00,70.2,67.4,29.92,SE,126,5.0,10.4,91,0.00,,FEW,0.00,WeatherDisplay:10.37,2013-02-20 18:30:00,
2013-02-20 12:35:00,70.3,67.2,29.91,ESE,122,7.5,9.2,90,0.00,,FEW,0.00,WeatherDisplay:10.37,2013-02-20 18:35:00,
2013-02-20 12:40:00,70.2,67.1,29.91,SE,142,9.3,16.8,90,0.00,,FEW,0.00,WeatherDisplay:10.37,2013-02-20 18:40:00,
2013-02-20 12:45:00,70.1,67.3,29.90,SE,126,4.1,7.5,91,0.00,,FEW,0.00,WeatherDisplay:10.37,2013-02-20 18:45:00,
2013-02-20 12:50:00,70.2,67.4,29.90,SE,126,7.2,10.5,91,0.00,,FEW,0.00,WeatherDisplay:10.37,2013-02-20 18:50:00,
2013-02-20 12:55:00,70.2,67.4,29.88,SSE,151,7.1,9.4,91,0.00,,FEW,0.00,WeatherDisplay:10.37,2013-02-20 18:55:00,
2013-02-20 13:00:00,70.3,67.2,29.88,SE,133,7.5,13.7,90,0.00,,FEW,0.00,WeatherDisplay:10.37,2013-02-20 19:00:00,
2013-02-20 13:05:00,70.4,67.3,29.88,SSE,156,7.7,9.2,90,0.00,,FEW,0.00,WeatherDisplay:10.37,2013-02-20 19:05:00,
2013-02-20 13:10:00,70.4,67.3,29.88,ESE,116,5.7,9.2,90,0.00,,FEW,0.00,WeatherDisplay:10.37,2013-02-20 19:10:00,
2013-02-20 13:15:00,70.5,67.4,29.88,SE,144,8.9,10.4,90,0.00,,FEW,0.00,WeatherDisplay:10.37,2013-02-20 19:15:00,
2013-02-20 13:20:00,70.4,67.3,29.87,ESE,117,8.0,10.5,90,0.00,,FEW,0.00,WeatherDisplay:10.37,2013-02-20 19:20:00,
2013-02-20 13:25:00,70.4,67.3,29.87,SSE,165,4.9,11.5,90,0.00,,FEW,0.00,WeatherDisplay:10.37,2013-02-20 19:25:00,
2013-02-20 13:30:00,70.5,67.4,29.87,ESE,114,4.1,11.5,90,0.00,,FEW,0.00,WeatherDisplay:10.37,2013-02-20 19:30:00,
2013-02-20 13:35:00,70.6,67.5,29.87,SSE,166,7.5,9.2,90,0.00,,FEW,0.00,WeatherDisplay:10.37,2013-02-20 19:35:00,
2013-02-20 13:40:00,70.7,67.6,29.87,South,170,9.2,16.1,90,0.00,,FEW,0.00,WeatherDisplay:10.37,2013-02-20 19:40:00,
2013-02-20 13:45:00,70.6,67.5,29.86,SE,124,7.5,10.4,90,0.00,,FEW,0.00,WeatherDisplay:10.37,2013-02-20 19:45:00,
2013-02-20 13:50:00,70.5,67.4,29.86,SE,135,7.9,12.7,90,0.00,,FEW,0.00,WeatherDisplay:10.37,2013-02-20 19:50:00,
2013-02-20 13:55:00,70.3,67.5,29.86,SE,125,7.5,11.5,91,0.00,,FEW,0.00,WeatherDisplay:10.37,2013-02-20 19:55:00,
2013-02-20 14:00:00,70.2,67.4,29.86,SSE,154,8.3,9.2,91,0.00,,FEW,0.00,WeatherDisplay:10.37,2013-02-20 20:00:00,
2013-02-20 14:05:00,70.1,67.3,29.86,SSE,156,4.2,6.9,91,0.00,,FEW,0.00,WeatherDisplay:10.37,2013-02-20 20:05:00,
2013-02-20 14:10:00,70.1,67.3,29.86,SE,140,6.5,12.7,91,0.00,,FEW,0.00,WeatherDisplay:10.37,2013-02-20 20:10:00,
2013-02-20 14:15:00,70.1,67.3,29.85,ESE,118,7.0,10.4,91,0.00,,FEW,0.00,WeatherDisplay:10.37,2013-02-20 20:15:00,
2013-02-20 14:20:00,70.2,67.4,29.85,ESE,117,6.6,11.5,91,0.00,,FEW,0.00,WeatherDisplay:10.37,2013-02-20 20:20:00,
2013-02-20 14:25:00,70.2,67.4,29.85,SSE,151,7.0,17.3,91,0.00,,FEW,0.00,WeatherDisplay:10.37,2013-02-20 20:25:00,
2013-02-20 14:30:00,70.2,67.4,29.85,ESE,123,6.8,9.2,91,0.00,,FEW,0.00,WeatherDisplay:10.37,2013-02-20 20:30:00,
2013-02-20 14:35:00,70.3,67.5,29.84,ESE,112,8.4,9.2,91,0.00,,FEW,0.00,WeatherDisplay:10.37,2013-02-20 20:35:00,
2013-02-20 14:40:00,70.3,67.5,29.83,SE,126,6.3,9.2,91,0.00,,FEW,0.00,WeatherDisplay:10.37,2013-02-20 20:40:00,
2013-02-20 14:45:00,70.3,67.5,29.83,SE,124,6.7,8.1,91,0.00,,FEW,0.00,WeatherDisplay:10.37,2013-02-20 20:45:00,
2013-02-20 14:50:00,70.3,67.5,29.83,ESE,120,8.4,11.5,91,0.00,,FEW,0.00,WeatherDisplay:10.37,2013-02-20 20:50:00,
2013-02-20 14:55:00,70.2,67.8,29.82,ESE,121,8.3,11.5,92,0.00,,FEW,0.00,WeatherDisplay:10.37,2013-02-20 20:55:00,
2013-02-20 15:00:00,70.0,67.6,29.81,East,85,6.9,12.7,92,0.00,,FEW,0.00,WeatherDisplay:10.37,2013-02-20 21:00:00,
2013-02-20 15:05:00,69.9,67.8,29.82,ESE,109,8.3,11.5,93,0.00,,FEW,0.00,WeatherDisplay:10.37,2013-02-20 21:05:00,
2013-02-20 15:10:00,70.0,67.6,29.81,East,98,11.0,11.0,92,0.00,,FEW,0.00,WeatherDisplay:10.37,2013-02-20 21:10:00,
2013-02-20 15:15:00,70.4,68.0,29.81,ESE,123,7.4,17.3,92,0.00,,FEW,0.00,WeatherDisplay:10.37,2013-02-20 21:15:00,
2013-02-20 15:20:00,70.6,67.8,29.81,East,88,8.5,11.5,91,0.00,,FEW,0.00,WeatherDisplay:10.37,2013-02-20 21:20:00,
2013-02-20 15:25:00,70.2,67.4,29.80,ESE,116,8.9,12.7,91,0.00,,FEW,0.00,WeatherDisplay:10.37,2013-02-20 21:25:00,
2013-02-20 15:30:00,69.8,67.4,29.80,SE,131,4.6,9.2,92,0.00,,FEW,0.00,WeatherDisplay:10.37,2013-02-20 21:30:00,
2013-02-20 15:35:00,69.4,67.3,29.80,SSE,149,7.5,10.4,93,0.00,,FEW,0.00,WeatherDisplay:10.37,2013-02-20 21:35:00,
2013-02-20 15:40:00,69.2,67.4,29.80,SE,134,5.7,10.4,94,0.00,,FEW,0.00,WeatherDisplay:10.37,2013-02-20 21:40:00,
2013-02-20 15:45:00,69.2,67.4,29.80,SSE,150,2.1,5.3,94,0.00,,FEW,0.00,WeatherDisplay:10.37,2013-02-20 21:45:00,
2013-02-20 15:50:00,69.1,67.3,29.80,SSE,154,3.9,4.6,94,0.00,,FEW,0.00,WeatherDisplay:10.37,2013-02-20 21:50:00,
2013-02-20 15:55:00,68.8,67.0,29.80,South,170,5.4,5.8,94,0.00,,FEW,0.00,WeatherDisplay:10.37,2013-02-20 21:55:00,
2013-02-20 16:00:00,68.9,67.4,29.79,SE,129,11.6,12.7,95,0.00,,FEW,0.00,WeatherDisplay:10.37,2013-02-20 22:00:00,
2013-02-20 16:05:00,69.0,67.2,29.79,East,83,12.0,15.0,94,0.00,,FEW,0.00,WeatherDisplay:10.37,2013-02-20 22:05:00,
2013-02-20 16:10:00,69.0,67.2,29.79,SSE,168,6.0,9.2,94,0.00,,FEW,0.00,WeatherDisplay:10.37,2013-02-20 22:10:00,
2013-02-20 16:15:00,69.2,67.4,29.78,SE,144,5.6,11.5,94,0.00,,FEW,0.00,WeatherDisplay:10.37,2013-02-20 22:15:00,
2013-02-20 16:20:00,69.6,67.8,29.78,SE,130,5.9,6.9,94,0.00,,FEW,0.00,WeatherDisplay:10.37,2013-02-20 22:20:00,
2013-02-20 16:25:00,69.8,67.7,29.79,ESE,118,8.6,13.8,93,0.00,,FEW,0.00,WeatherDisplay:10.37,2013-02-20 22:25:00,
2013-02-20 16:30:00,69.9,67.8,29.78,East,90,8.7,12.7,93,0.00,,FEW,0.00,WeatherDisplay:10.37,2013-02-20 22:30:00,
2013-02-20 16:35:00,70.0,67.6,29.78,ESE,103,11.1,13.8,92,0.00,,FEW,0.00,WeatherDisplay:10.37,2013-02-20 22:35:00,
2013-02-20 16:40:00,69.9,67.5,29.78,SE,137,6.8,15.0,92,0.00,,FEW,0.00,WeatherDisplay:10.37,2013-02-20 22:40:00,
2013-02-20 16:45:00,70.0,67.6,29.78,SSE,149,8.4,11.6,92,0.00,,FEW,0.00,WeatherDisplay:10.37,2013-02-20 22:45:00,
2013-02-20 16:50:00,70.2,67.8,29.78,SE,130,7.7,10.4,92,0.00,,FEW,0.00,WeatherDisplay:10.37,2013-02-20 22:50:00,
2013-02-20 16:55:00,70.2,67.8,29.78,ESE,112,9.2,12.7,92,0.00,,FEW,0.00,WeatherDisplay:10.37,2013-02-20 22:55:00,
2013-02-20 17:00:00,70.0,67.6,29.77,SSE,148,11.6,15.0,92,0.00,,FEW,0.00,WeatherDisplay:10.37,2013-02-20 23:00:00,
2013-02-20 17:05:00,69.9,67.5,29.77,SSE,147,7.6,9.4,92,0.00,,FEW,0.00,WeatherDisplay:10.37,2013-02-20 23:05:00,
2013-02-20 17:10:00,69.9,67.5,29.77,ESE,119,7.6,12.6,92,0.00,,FEW,0.00,WeatherDisplay:10.37,2013-02-20 23:10:00,
2013-02-20 17:15:00,69.8,67.4,29.77,East,87,8.9,13.8,92,0.00,,FEW,0.00,WeatherDisplay:10.37,2013-02-20 23:15:00,
2013-02-20 17:20:00,69.6,67.2,29.77,SSE,155,9.7,9.7,92,0.00,,FEW,0.00,WeatherDisplay:10.37,2013-02-20 23:20:00,
2013-02-20 17:25:00,69.5,67.4,29.77,SE,136,6.7,7.4,93,0.00,,FEW,0.00,WeatherDisplay:10.37,2013-02-20 23:25:00,
2013-02-20 17:30:00,69.4,67.3,29.77,SSE,150,5.6,9.2,93,0.00,,FEW,0.00,WeatherDisplay:10.37,2013-02-20 23:30:00,
2013-02-20 17:35:00,69.4,67.3,29.77,South,173,6.9,9.2,93,0.00,,FEW,0.00,WeatherDisplay:10.37,2013-02-20 23:35:00,
2013-02-20 17:40:00,69.4,67.3,29.77,SE,144,7.7,11.5,93,0.00,,FEW,0.00,WeatherDisplay:10.37,2013-02-20 23:40:00,
2013-02-20 17:45:00,69.5,67.4,29.76,ESE,119,7.1,10.4,93,0.00,,FEW,0.00,WeatherDisplay:10.37,2013-02-20 23:45:00,
2013-02-20 17:50:00,69.5,67.7,29.76,South,170,7.6,9.2,94,0.00,,FEW,0.00,WeatherDisplay:10.37,2013-02-20 23:50:00,
2013-02-20 17:55:00,69.6,67.8,29.76,SSE,164,4.2,6.9,94,0.00,,FEW,0.00,WeatherDisplay:10.37,2013-02-20 23:55:00,
2013-02-20 18:00:00,69.6,67.8,29.76,SSE,147,5.6,12.7,94,0.00,,FEW,0.00,WeatherDisplay:10.37,2013-02-21 00:00:00,
2013-02-20 18:05:00,69.6,67.8,29.76,ESE,105,9.4,12.7,94,0.00,,FEW,0.00,WeatherDisplay:10.37,2013-02-21 00:05:00,
2013-02-20 18:10:00,69.5,67.7,29.76,East,101,8.3,10.4,94,0.00,,FEW,0.00,WeatherDisplay:10.37,2013-02-21 00:10:00,
2013-02-20 18:15:00,69.4,67.6,29.76,South,170,10.1,13.8,94,0.00,,FEW,0.00,WeatherDisplay:10.37,2013-02-21 00:15:00,
2013-02-20 18:20:00,69.4,67.6,29.76,ESE,121,8.8,20.7,94,0.00,,FEW,0.00,WeatherDisplay:10.37,2013-02-21 00:20:00,
2013-02-20 18:25:00,69.3,67.5,29.76,SSE,163,9.2,11.5,94,0.00,,FEW,0.00,WeatherDisplay:10.37,2013-02-21 00:25:00,
2013-02-20 18:30:00,69.2,67.4,29.76,SSE,163,5.8,8.1,94,0.00,,FEW,0.00,WeatherDisplay:10.37,2013-02-21 00:30:00,
2013-02-20 18:35:00,69.1,67.3,29.76,East,98,7.9,11.5,94,0.00,,FEW,0.00,WeatherDisplay:10.37,2013-02-21 00:35:00,
2013-02-20 18:40:00,69.1,67.6,29.76,SSE,149,6.7,9.2,95,0.00,,FEW,0.00,WeatherDisplay:10.37,2013-02-21 00:40:00,
2013-02-20 18:45:00,69.1,67.3,29.76,SE,130,10.2,11.5,94,0.00,,FEW,0.00,WeatherDisplay:10.37,2013-02-21 00:45:00,
2013-02-20 18:50:00,69.0,67.5,29.76,SSE,159,10.0,15.0,95,0.00,,FEW,0.00,WeatherDisplay:10.37,2013-02-21 00:50:00,
2013-02-20 18:55:00,69.0,67.5,29.76,SSE,163,9.3,15.0,95,0.00,,FEW,0.00,WeatherDisplay:10.37,2013-02-21 00:55:00,
2013-02-20 19:00:00,69.0,67.5,29.77,SE,128,7.3,10.4,95,0.00,,FEW,0.00,WeatherDisplay:10.37,2013-02-21 01:00:00,
2013-02-20 19:05:00,69.0,67.5,29.77,SE,126,8.7,11.5,95,0.00,,FEW,0.00,WeatherDisplay:10.37,2013-02-21 01:05:00,
2013-02-20 19:10:00,69.1,67.6,29.76,ESE,105,8.7,12.7,95,0.00,,FEW,0.00,WeatherDisplay:10.37,2013-02-21 01:10:00,
2013-02-20 19:15:00,69.1,67.6,29.76,South,174,10.3,15.0,95,0.00,,FEW,0.00,WeatherDisplay:10.37,2013-02-21 01:15:00,
2013-02-20 19:20:00,69.1,67.6,29.76,ESE,118,9.0,13.8,95,0.00,,FEW,0.00,WeatherDisplay:10.37,2013-02-21 01:20:00,
2013-02-20 19:25:00,69.0,67.5,29.76,ESE,122,7.3,15.0,95,0.00,,FEW,0.00,WeatherDisplay:10.37,2013-02-21 01:25:00,
2013-02-20 19:30:00,68.9,67.4,29.76,SE,130,9.7,19.6,95,0.00,,FEW,0.00,WeatherDisplay:10.37,2013-02-21 01:30:00,
2013-02-20 19:35:00,68.8,67.3,29.76,ESE,123,6.6,8.1,95,0.00,,FEW,0.00,WeatherDisplay:10.37,2013-02-21 01:35:00,
2013-02-20 19:40:00,68.8,67.3,29.76,ESE,122,5.1,6.9,95,0.00,,FEW,0.00,WeatherDisplay:10.37,2013-02-21 01:40:00,
2013-02-20 19:45:00,68.9,67.4,29.76,SSE,161,5.3,9.4,95,0.00,,FEW,0.00,WeatherDisplay:10.37,2013-02-21 01:45:00,
2013-02-20 19:50:00,69.0,67.5,29.76,ESE,116,10.7,17.3,95,0.00,,FEW,0.00,WeatherDisplay:10.37,2013-02-21 01:50:00,
2013-02-20 19:55:00,69.0,67.5,29.76,SE,124,8.0,11.6,95,0.00,,FEW,0.00,WeatherDisplay:10.37,2013-02-21 01:55:00,
2013-02-20 20:00:00,68.9,67.4,29.76,SE,129,12.2,18.4,95,0.00,,FEW,0.00,WeatherDisplay:10.37,2013-02-21 02:00:00,
2013-02-20 20:05:00,68.9,67.4,29.76,East,88,10.5,13.8,95,0.00,,FEW,0.00,WeatherDisplay:10.37,2013-02-21 02:05:00,
2013-02-20 20:10:00,68.8,67.3,29.76,SE,126,10.9,20.7,95,0.00,,FEW,0.00,WeatherDisplay:10.37,2013-02-21 02:10:00,
2013-02-20 20:15:00,68.8,67.3,29.76,SSE,162,9.3,13.8,95,0.00,,FEW,0.00,WeatherDisplay:10.37,2013-02-21 02:15:00,
2013-02-20 20:20:00,68.8,67.3,29.76,ESE,106,7.2,11.5,95,0.00,,FEW,0.00,WeatherDisplay:10.37,2013-02-21 02:20:00,
2013-02-20 20:25:00,68.8,68.8,29.76,ESE,102,6.7,10.5,100,0.00,,FEW,0.00,WeatherDisplay:10.37,2013-02-21 02:25:00,
2013-02-20 20:30:00,68.8,67.3,29.76,SSE,152,6.8,8.1,95,0.00,,FEW,0.00,WeatherDisplay:10.37,2013-02-21 02:30:00,
2013-02-20 20:35:00,68.8,67.3,29.76,ESE,109,8.2,15.0,95,0.00,,FEW,0.00,WeatherDisplay:10.37,2013-02-21 02:35:00,
2013-02-20 20:40:00,68.8,68.8,29.75,ESE,115,8.5,13.8,100,0.00,,FEW,0.00,WeatherDisplay:10.37,2013-02-21 02:40:00,
2013-02-20 20:45:00,68.8,67.3,29.75,SE,140,6.1,9.2,95,0.00,,FEW,0.00,WeatherDisplay:10.37,2013-02-21 02:45:00,
2013-02-20 20:50:00,68.7,67.2,29.76,SE,132,7.8,15.0,95,0.00,,FEW,0.00,WeatherDisplay:10.37,2013-02-21 02:50:00,
2013-02-20 20:55:00,68.6,67.1,29.75,SE,144,6.4,10.4,95,0.00,,FEW,0.00,WeatherDisplay:10.37,2013-02-21 02:55:00,
2013-02-20 21:00:00,68.5,68.5,29.75,SE,140,7.5,11.5,100,0.00,,FEW,0.00,WeatherDisplay:10.37,2013-02-21 03:00:00,
2013-02-20 21:05:00,68.5,68.5,29.75,SSE,156,8.4,11.5,100,0.00,,FEW,0.00,WeatherDisplay:10.37,2013-02-21 03:05:00,
2013-02-20 21:10:00,68.6,68.6,29.75,ESE,118,8.9,10.4,100,0.00,,FEW,0.00,WeatherDisplay:10.37,2013-02-21 03:10:00,
2013-02-20 21:15:00,68.7,68.7,29.75,ESE,107,9.2,18.4,100,0.00,,FEW,0.00,WeatherDisplay:10.37,2013-02-21 03:15:00,
2013-02-20 21:20:00,68.8,68.8,29.75,SE,133,7.5,12.6,100,0.00,,FEW,0.00,WeatherDisplay:10.37,2013-02-21 03:20:00,
2013-02-20 21:25:00,68.9,68.9,29.75,SSE,162,12.1,18.4,100,0.00,,FEW,0.00,WeatherDisplay:10.37,2013-02-21 03:25:00,
2013-02-20 21:30:00,68.9,67.4,29.75,SE,137,6.8,12.7,95,0.00,,FEW,0.00,WeatherDisplay:10.37,2013-02-21 03:30:00,
2013-02-20 21:35:00,68.9,67.4,29.75,SE,138,12.2,17.3,95,0.00,,FEW,0.00,WeatherDisplay:10.37,2013-02-21 03:35:00,
2013-02-20 21:40:00,68.9,67.4,29.75,East,98,13.8,15.0,95,0.00,,FEW,0.00,WeatherDisplay:10.37,2013-02-21 03:40:00,
2013-02-20 21:45:00,68.8,67.3,29.75,SSE,164,10.0,20.7,95,0.00,,FEW,0.00,WeatherDisplay:10.37,2013-02-21 03:45:00,
2013-02-20 21:50:00,68.8,67.3,29.75,ESE,111,11.3,15.0,95,0.00,,FEW,0.00,WeatherDisplay:10.37,2013-02-21 03:50:00,
2013-02-20 21:55:00,68.8,67.3,29.74,SE,137,10.3,16.1,95,0.00,,FEW,0.00,WeatherDisplay:10.37,2013-02-21 03:55:00,
2013-02-20 22:00:00,68.8,68.8,29.74,SE,135,13.4,16.1,100,0.00,,FEW,0.00,WeatherDisplay:10.37,2013-02-21 04:00:00,
2013-02-20 22:05:00,68.9,67.4,29.74,SE,142,9.9,17.3,95,0.00,,FEW,0.00,WeatherDisplay:10.37,2013-02-21 04:05:00,
2013-02-20 22:10:00,68.9,68.9,29.74,South,183,8.7,12.7,100,0.00,,FEW,0.00,WeatherDisplay:10.37,2013-02-21 04:10:00,
2013-02-20 22:15:00,69.0,67.5,29.74,ESE,109,7.8,13.8,95,0.00,,FEW,0.00,WeatherDisplay:10.37,2013-02-21 04:15:00,
2013-02-20 22:20:00,69.0,67.5,29.74,SE,141,8.4,16.1,95,0.00,,FEW,0.00,WeatherDisplay:10.37,2013-02-21 04:20:00,
2013-02-20 22:25:00,69.0,67.5,29.74,SE,146,11.3,12.7,95,0.00,,FEW,0.00,WeatherDisplay:10.37,2013-02-21 04:25:00,
2013-02-20 22:30:00,69.0,67.5,29.74,SE,137,13.7,13.8,95,0.00,,FEW,0.00,WeatherDisplay:10.37,2013-02-21 04:30:00,
2013-02-20 22:35:00,69.0,67.5,29.73,SSE,147,10.1,16.8,95,0.00,,FEW,0.00,WeatherDisplay:10.37,2013-02-21 04:35:00,
2013-02-20 22:40:00,69.1,67.6,29.73,SSE,167,10.6,19.6,95,0.00,,FEW,0.00,WeatherDisplay:10.37,2013-02-21 04:40:00,
2013-02-20 22:45:00,69.1,67.6,29.73,ESE,123,12.5,18.4,95,0.00,,FEW,0.00,WeatherDisplay:10.37,2013-02-21 04:45:00,
2013-02-20 22:50:00,69.2,67.7,29.73,East,98,10.2,17.3,95,0.00,,FEW,0.00,WeatherDisplay:10.37,2013-02-21 04:50:00,
2013-02-20 22:55:00,69.1,67.6,29.73,ESE,116,10.4,17.3,95,0.00,,FEW,0.00,WeatherDisplay:10.37,2013-02-21 04:55:00,
2013-02-20 23:00:00,69.1,67.6,29.72,SE,124,8.3,16.1,95,0.00,,FEW,0.00,WeatherDisplay:10.37,2013-02-21 05:00:00,
2013-02-20 23:05:00,69.0,67.5,29.72,SSE,159,6.6,18.4,95,0.00,,FEW,0.00,WeatherDisplay:10.37,2013-02-21 05:05:00,
2013-02-20 23:10:00,69.0,67.5,29.71,ESE,103,10.8,18.4,95,0.00,,FEW,0.00,WeatherDisplay:10.37,2013-02-21 05:10:00,
2013-02-20 23:15:00,69.0,67.5,29.71,SE,138,11.3,16.1,95,0.00,,FEW,0.00,WeatherDisplay:10.37,2013-02-21 05:15:00,
2013-02-20 23:20:00,69.1,67.6,29.72,SE,124,10.5,18.4,95,0.00,,FEW,0.00,WeatherDisplay:10.37,2013-02-21 05:20:00,
2013-02-20 23:25:00,69.0,67.5,29.71,SSE,154,9.1,18.4,95,0.00,,FEW,0.00,WeatherDisplay:10.37,2013-02-21 05:25:00,
2013-02-20 23:30:00,69.0,67.5,29.71,SSE,152,10.1,13.8,95,0.00,,FEW,0.00,WeatherDisplay:10.37,2013-02-21 05:30:00,
2013-02-20 23:35:00,69.0,67.5,29.70,SE,142,11.1,18.4,95,0.00,,FEW,0.00,WeatherDisplay:10.37,2013-02-21 05:35:00,
2013-02-20 23:40:00,68.9,67.4,29.71,SSE,160,10.2,13.8,95,0.00,,FEW,0.00,WeatherDisplay:10.37,2013-02-21 05:40:00,
2013-02-20 23:45:00,68.9,67.4,29.70,SE,144,10.9,11.5,95,0.00,,FEW,0.00,WeatherDisplay:10.37,2013-02-21 05:45:00,
2013-02-20 23:50:00,68.9,67.4,29.71,SSE,147,8.9,10.5,95,0.00,,FEW,0.00,WeatherDisplay:10.37,2013-02-21 05:50:00,
2013-02-20 23:55:00,69.1,69.1,29.71,SE,130,10.2,15.0,100,0.00,,FEW,0.00,WeatherDisplay:10.37,2013-02-21 05:55:00,